x

Saginaw Bay Light #1, Mi (sblm4) Weather Station

4:50am - Fri 28th Nov 2014 All times are CST. -6 hours from GMT.

  • Wind
    15mph, 20mph gusts
  • Air Temp 19°f
  • Sea Pressure 1026.1mb
  • Saginaw Bay Light #1, Mi
  • Saginaw Bay Light #1, Mi

More Historic Weather Station data

Upgrade to MSW Pro to gain access to the past 30 days of data for over 8000 Wavebouys and Weather Stations around the globe.

Join Pro

Comparision Forecast

View Surf forecast
   
Fri 11/28 4:50am 15 20 mph 1026.1mb 19f
4:40am 15 20 mph 1026.1mb 19f
4:30am 16 18 mph 1026.1mb 19f
4:20am 15 20 mph 1026.1mb 20f
4:10am 17 20 mph 1026.1mb 19f
4:00am 15 20 mph 1026.1mb 19f
3:50am 16 21 mph 1025.7mb 19f
3:40am 15 21 mph 1026.1mb 19f
3:30am 17 21 mph 1026.1mb 19f
3:20am 15 21 mph 1026.1mb 20f
3:10am 15 22 mph 1026.1mb 20f
3:00am 16 22 mph 1025.7mb 20f
2:50am 18 23 mph 1026.1mb 20f
2:40am 20 23 mph 1025.7mb 20f
2:30am 13 21 mph 1025.7mb 20f
2:20am 11 17 mph 1025.7mb 20f
2:10am 11 14 mph 1025.7mb 20f
2:00am 10 15 mph 1025.7mb 20f
1:50am 14 15 mph 1025.7mb 20f
1:40am 14 16 mph 1025.4mb 20f
1:30am 11 18 mph 1025.4mb 20f
1:20am 15 17 mph 1025.4mb 21f
1:10am 13 17 mph 1025.4mb 20f
1:00am 13 17 mph 1025.4mb 21f
12:50am 11 20 mph 1025.4mb 20f
12:40am 11 17 mph 1025.1mb 20f
12:30am 14 16 mph 1025.1mb 20f
12:20am 16 18 mph 1025.1mb 20f
12:10am 15 20 mph 1025.1mb 20f
12:00am 14 22 mph 1025.1mb 20f
Thu 11/27 11:50pm 17 22 mph 1025.1mb 20f
11:40pm 14 17 mph 1025.1mb 21f
11:30pm 14 17 mph 1024.7mb 21f
11:20pm 14 17 mph 1025.1mb 21f
11:10pm 11 20 mph 1025.1mb 21f
11:00pm 15 21 mph 1025.4mb 21f
10:50pm 15 21 mph 1025.4mb 21f
10:40pm 16 22 mph 1025.4mb 21f
10:30pm 17 22 mph 1025.4mb 21f
10:20pm 18 22 mph 1025.4mb 21f
10:10pm 17 22 mph 1025.4mb 21f
10:00pm 17 21 mph 1025.4mb 21f
9:50pm 15 21 mph 1025.4mb 21f
9:40pm 14 21 mph 1025.4mb 21f
9:30pm 15 18 mph 1025.4mb 21f
9:20pm 15 20 mph 1025.4mb 21f
9:10pm 16 23 mph 1025.4mb 21f
9:00pm 16 20 mph 1025.1mb 21f
8:50pm 16 20 mph 1025.1mb 22f
8:40pm 15 22 mph 1025.1mb 21f
8:30pm 17 21 mph 1025.1mb 21f
8:20pm 17 24 mph 1025.1mb 21f
8:10pm 22 24 mph 1025.1mb 21f
8:00pm 18 24 mph 1024.7mb 22f
7:50pm 21 25 mph 1024.7mb 22f
7:40pm 17 24 mph 1024.7mb 22f
7:30pm 18 26 mph 1024.7mb 22f
7:20pm 23 28 mph 1024.4mb 23f
7:10pm 22 28 mph 1024.7mb 23f
7:00pm 23 26 mph 1024.7mb 23f
6:50pm 21 25 mph 1024.4mb 23f
6:40pm 22 25 mph 1024mb 24f
6:30pm 22 25 mph 1024.4mb 23f
6:20pm 18 23 mph 1024mb 24f
6:10pm 18 25 mph 1024mb 24f
6:00pm 22 28 mph 1024mb 25f
5:50pm 22 28 mph 1023.7mb 24f
5:40pm 23 29 mph 1023.7mb 24f
5:30pm 23 31 mph 1023.7mb 25f
5:20pm 25 30 mph 1023.7mb 25f
5:10pm 24 30 mph 1023.7mb 25f
5:00pm 23 26 mph 1023.4mb 26f
4:50pm 26 29 mph 1023.4mb 25f
4:40pm 24 28 mph 1023.4mb 26f
4:30pm 23 25 mph 1023mb 26f
4:20pm 20 26 mph 1023mb 27f
4:10pm 23 28 mph 1023mb 26f
4:00pm 24 28 mph 1023mb 27f
3:50pm 21 26 mph 1022.7mb 26f
3:40pm 24 26 mph 1022.7mb 26f
3:30pm 21 23 mph 1022.4mb 27f
3:20pm 22 25 mph 1022mb 27f
3:10pm 21 26 mph 1022mb 27f
3:00pm 18 23 mph 1022mb 28f
2:50pm 20 24 mph 1022mb 27f
2:40pm 22 24 mph 1021.7mb 28f
2:30pm 21 24 mph 1021.7mb 27f
2:20pm 18 23 mph 1021.7mb 27f
2:10pm 17 22 mph 1021.3mb 27f
2:00pm 14 20 mph 1021.7mb 27f
1:50pm 18 24 mph 1021.3mb 26f
1:40pm 21 25 mph 1021.3mb 27f
1:30pm 21 25 mph 1021.3mb 27f
1:20pm 22 28 mph 1021mb 27f
1:10pm 24 26 mph 1021mb 28f
1:00pm 21 24 mph 1021mb 28f
12:50pm 21 25 mph 1021mb 28f
12:40pm 21 25 mph 1021mb 27f
12:30pm 20 23 mph 1020.7mb 28f
12:20pm 20 22 mph 1020.7mb 28f
12:10pm 18 25 mph 1020.7mb 27f
12:00pm 23 28 mph 1020.7mb 27f
11:50am 23 25 mph 1020.7mb 28f
11:40am 21 23 mph 1020.3mb 28f
11:30am 21 24 mph 1020.3mb 28f
11:20am 21 24 mph 1020.3mb 28f
11:10am 20 23 mph 1020.3mb 28f
11:00am 20 22 mph 1020.3mb 28f
10:50am 21 22 mph 1020.3mb 28f
10:40am 14 21 mph 1020.7mb 28f
10:30am 17 23 mph 1020.7mb 28f
10:20am 18 21 mph 1020.7mb 28f
10:10am 18 22 mph 1020.7mb 28f
10:00am 18 23 mph 1020.7mb 28f
9:50am 17 22 mph 1020.7mb 28f
9:40am 17 22 mph 1020.3mb 28f
9:30am 20 23 mph 1020.3mb 28f
9:20am 21 23 mph 1020.3mb 28f
9:10am 21 23 mph 1020mb 28f
9:00am 17 22 mph 1020mb 28f
8:50am 16 23 mph 1020mb 28f
8:40am 16 22 mph 1020mb 28f
8:30am 18 21 mph 1020mb 28f
8:20am 16 21 mph 1019.6mb 29f
8:10am 17 20 mph 1019.6mb 28f
8:00am 17 20 mph 1019.6mb 28f
7:50am 16 18 mph 1019.6mb 28f
7:40am 16 18 mph 1019.6mb 28f
7:30am 16 20 mph 1019.3mb 28f
7:20am 16 20 mph 1019.3mb 28f
7:10am 16 22 mph 1019.3mb 28f
7:00am 16 21 mph 1019.3mb 28f
6:50am 18 22 mph 1019.3mb 28f
6:40am 18 23 mph 1019.3mb 28f
6:30am 18 23 mph 1019.3mb 28f
6:20am 18 21 mph 1019.3mb 28f
6:10am 18 21 mph 1019mb 28f
6:00am 17 18 mph 1019.3mb 29f
5:50am 16 21 mph 1019.3mb 29f
5:40am 16 18 mph 1019mb 28f
5:30am 15 20 mph 1019mb 28f
5:20am 17 20 mph 1019mb 28f
5:10am 16 20 mph 1019mb 28f
5:00am 16 18 mph 1019mb 29f
4:50am 16 18 mph 1019mb 28f
4:40am 14 16 mph 1019mb 29f
4:30am 13 15 mph 1019mb 29f
4:20am 13 16 mph 1018.6mb 28f
4:10am 11 14 mph 1018.6mb 29f
4:00am 10 17 mph 1018.6mb 29f
3:50am 11 16 mph 1018.6mb 28f
3:40am 14 17 mph 1018.6mb 29f
3:30am 14 16 mph 1018.6mb 28f
3:20am 14 15 mph 1018.6mb 29f
3:10am 11 15 mph 1019mb 29f
3:00am 13 15 mph 1018.6mb 29f
2:50am 14 16 mph 1019mb 29f
2:40am 11 14 mph 1019mb 29f
2:30am 11 15 mph 1019mb 29f
2:20am 13 16 mph 1019mb 29f
2:10am 13 16 mph 1019mb 29f
2:00am 13 16 mph 1019mb 29f
1:50am 13 16 mph 1019mb 29f
1:40am 11 14 mph 1019mb 29f
1:30am 13 14 mph 1019mb 29f
1:20am 10 13 mph 1019mb 29f
1:10am 9 13 mph 1018.6mb 29f
1:00am 10 13 mph 1018.6mb 29f
12:50am 10 13 mph 1019mb 29f
12:40am 10 13 mph 1019mb 29f
12:30am 10 11 mph 1019mb 29f
12:20am 9 11 mph 1019.3mb 29f
12:10am 9 11 mph 1019.3mb 29f
12:00am 10 11 mph 1019.3mb 29f
Wed 11/26 11:50pm 9 13 mph 1019.3mb 29f
11:40pm 9 10 mph 1019.3mb 29f
11:30pm 8 10 mph 1019.3mb 29f
11:20pm 9 10 mph 1019.3mb 29f
11:10pm 8 11 mph 1019.3mb 29f
11:00pm 8 10 mph 1019.3mb 29f
10:50pm 7 9 mph 1019.3mb 29f
10:40pm 8 10 mph 1019.3mb 29f
10:30pm 9 11 mph 1019.3mb 29f
10:20pm 9 11 mph 1019.3mb 29f
10:10pm 10 11 mph 1019.3mb 29f
10:00pm 9 13 mph 1019.3mb 29f
9:50pm 10 13 mph 1019.3mb 29f
9:40pm 10 11 mph 1019mb 29f
9:30pm 9 11 mph 1019mb 29f
9:20pm 9 11 mph 1019mb 29f
9:10pm 9 13 mph 1019.3mb 29f
9:00pm 10 13 mph 1019mb 29f
8:50pm 10 13 mph 1019.3mb 29f
8:40pm 10 14 mph 1019mb 29f
8:30pm 11 13 mph 1019mb 29f
8:20pm 11 14 mph 1019mb 29f
8:10pm 11 15 mph 1019mb 29f
8:00pm 13 16 mph 1019mb 29f
7:50pm 14 16 mph 1019mb 29f
7:40pm 11 15 mph 1019mb 29f
7:30pm 13 15 mph 1019mb 29f
7:20pm 11 14 mph 1019mb 29f
7:10pm 11 14 mph 1019.3mb 29f
7:00pm 13 15 mph 1019.3mb 29f
6:50pm 11 15 mph 1019.3mb 29f
6:40pm 13 15 mph 1019.3mb 29f
6:30pm 11 15 mph 1019.6mb 29f
6:20pm 11 15 mph 1019.6mb 30f
6:10pm 13 14 mph 1019.6mb 29f
6:00pm 13 15 mph 1019.6mb 29f
5:50pm 13 14 mph 1019.6mb 30f
5:40pm 11 15 mph 1019.6mb 30f
5:30pm 13 15 mph 1020mb 29f
5:20pm 13 14 mph 1020mb 30f
5:10pm 11 14 mph 1020mb 30f
5:00pm 11 13 mph 1020mb 30f
4:50pm 10 13 mph 1020mb 30f
4:40pm 11 13 mph 1020mb 30f
4:30pm 11 14 mph 1020mb 30f
4:20pm 7 8 mph 1020.3mb 30f
4:10pm 5 7 mph 1020.3mb 30f
4:00pm 5 8 mph 1020.3mb 30f
3:50pm 5 8 mph 1020.3mb 30f
3:40pm 5 7 mph 1020.3mb 30f
3:30pm 5 6 mph 1020.3mb 30f
3:20pm 3 5 mph 1020.3mb 30f
3:10pm 5 6 mph 1020.3mb 30f
3:00pm 3 5 mph 1020.3mb 30f
2:50pm 3 5 mph 1020.3mb 30f
2:40pm 5 6 mph 1020.3mb 30f
2:30pm 5 6 mph 1020.3mb 30f
2:20pm 3 6 mph 1020.3mb 30f
2:10pm 5 6 mph 1020.3mb 30f
2:00pm 2 7 mph 1020.3mb 30f
1:50pm 5 7 mph 1020.3mb 30f
1:40pm 5 7 mph 1020.3mb 30f
1:30pm 5 8 mph 1020mb 30f
1:20pm 6 7 mph 1020.3mb 30f
1:10pm 5 6 mph 1020.3mb 30f
1:00pm 2 6 mph 1020.3mb 30f
12:50pm 6 7 mph 1020mb 30f
12:40pm 6 8 mph 1020mb 30f
12:30pm 6 8 mph 1020mb 30f
12:20pm 6 7 mph 1020mb 30f
12:10pm 5 6 mph 1020mb 30f
12:00pm 3 5 mph 1020mb 30f
11:50am  -  3 mph 1020mb 30f
11:40am 2 6 mph 1020mb 30f
11:30am 5 6 mph 1020.3mb 30f
11:20am 5 7 mph 1020.3mb 30f
11:10am 5 8 mph 1020.7mb 30f
11:00am 6 8 mph 1021mb 30f
10:50am 3 7 mph 1021mb 30f
10:40am 7 8 mph 1021mb 30f
10:30am 5 8 mph 1021.3mb 30f
10:20am 6 7 mph 1021.3mb 30f
10:10am 2 8 mph 1021.3mb 31f
10:00am 6 8 mph 1021.7mb 31f
9:50am 7 9 mph 1021.7mb 31f
9:40am 6 8 mph 1021.7mb 31f
9:30am 7 9 mph 1021.7mb 30f
9:20am 7 10 mph 1021.7mb 30f
9:10am 3 10 mph 1021.7mb 30f
9:00am 6 10 mph 1022mb 30f
8:50am 8 11 mph 1022mb 30f
8:40am 7 10 mph 1022mb 30f
8:30am 8 10 mph 1022mb 30f
8:20am 6 14 mph 1022mb 30f
8:10am 6 11 mph 1021.7mb 30f
8:00am 3 5 mph 1022mb 30f
7:50am 5 6 mph 1022mb 30f
7:40am 5 7 mph 1021.7mb 29f
7:30am 6 7 mph 1021.7mb 29f
7:20am 5 6 mph 1021.7mb 29f
7:10am 6 7 mph 1021.7mb 29f
7:00am 2 6 mph 1021.7mb 29f
6:50am 2 5 mph 1021.7mb 29f
6:40am 3 6 mph 1021.7mb 29f
6:30am 2 5 mph 1021.7mb 29f
6:20am  -  3 mph 1021.7mb 29f
6:10am 2 5 mph 1021.7mb 29f
6:00am 5
mph
1021.7mb 29f
5:50am 1 3 mph 1022mb 29f
5:40am 3 6 mph 1022mb 29f
5:30am 3 7 mph 1021.7mb 29f
5:20am 2 7 mph 1021.7mb 29f
5:10am 6 7 mph 1021.7mb 29f
5:00am 5 8 mph 1021.7mb 29f
4:50am 1 7 mph 1021.7mb 29f
4:40am 5 7 mph 1021.7mb 29f
4:30am 6 8 mph 1021.7mb 29f
4:20am 5 10 mph 1021.7mb 29f
4:10am 3 9 mph 1021.7mb 29f
4:00am 7 9 mph 1021.7mb 29f
3:50am 3 5 mph 1022mb 29f
3:40am 5 9 mph 1022mb 29f
3:30am 8 14 mph 1022mb 29f
3:20am 6 10 mph 1022mb 29f
3:10am 7 14 mph 1022mb 29f
3:00am 9 13 mph 1022mb 29f
2:50am 6 11 mph 1022.4mb 29f
2:40am 9 17 mph 1022mb 29f
2:30am 10 15 mph 1022mb 29f
2:20am 14 16 mph 1022mb 29f
2:10am 13 16 mph 1022mb 30f
2:00am 13 16 mph 1022mb 29f
1:50am 14 16 mph 1022mb 30f
1:40am 11 15 mph 1022mb 29f
1:30am 10 13 mph 1022mb 30f
1:20am 8 11 mph 1022.4mb 30f
1:10am 8 10 mph 1022.4mb 30f
1:00am 9 14 mph 1022.4mb 30f
12:50am 11 15 mph 1022mb 30f
12:40am 9 13 mph 1021.7mb 30f
12:30am 13 14 mph 1021.7mb 30f
12:20am 7 14 mph 1022mb 30f
12:10am 9 15 mph 1021.7mb 30f
12:00am 13 15 mph 1021.7mb 30f
Tue 11/25 11:50pm 10 18 mph 1022mb 30f
11:40pm 13 15 mph 1022mb 30f
11:30pm 13 16 mph 1022mb 30f
11:20pm 9 15 mph 1021.7mb 30f
11:10pm 13 16 mph 1021.7mb 30f
11:00pm 11 15 mph 1021.7mb 30f
10:50pm 8 10 mph 1021.7mb 30f
10:40pm 6 10 mph 1021.7mb 30f
10:30pm 13 16 mph 1021.7mb 30f
10:20pm 9 11 mph 1021.7mb 30f
10:10pm 9 13 mph 1021.7mb 30f
10:00pm 11 15 mph 1021.7mb 30f
9:50pm 13 16 mph 1021.3mb 30f
9:40pm 8 16 mph 1021.3mb 30f
9:30pm 10 16 mph 1021mb 30f
9:20pm 13 15 mph 1021mb 30f
9:10pm 10 15 mph 1020.7mb 31f
9:00pm 14 16 mph 1020.7mb 30f
8:50pm 14 17 mph 1020.3mb 30f
8:40pm 14 16 mph 1020.3mb 30f
8:30pm 14 17 mph 1020.3mb 30f
8:20pm 15 17 mph 1020mb 30f
8:10pm 15 20 mph 1020mb 30f
8:00pm 18 22 mph 1020mb 31f
7:50pm 21 22 mph 1020mb 31f
7:40pm 21 23 mph 1019.6mb 31f
7:30pm 18 20 mph 1019.6mb 31f
7:20pm 15 20 mph 1019.6mb 31f
7:10pm 20 22 mph 1019.6mb 31f
7:00pm 20 23 mph 1019.6mb 31f
6:50pm 20 22 mph 1019.3mb 32f
6:40pm 18 22 mph 1019.3mb 32f
6:30pm 15 20 mph 1019mb 32f
6:20pm 16 21 mph 1019mb 32f
6:10pm 20 23 mph 1018.6mb 32f
6:00pm 22 24 mph 1018.6mb 32f
5:50pm 20 22 mph 1018.6mb 32f
5:40pm 18 22 mph 1017.9mb 32f
5:30pm 18 22 mph 1017.9mb 32f
5:20pm 18 23 mph 1017.9mb 32f
5:10pm 20 23 mph 1017.6mb 32f
5:00pm 18 22 mph 1017.6mb 32f
4:50pm 18 21 mph 1017.6mb 32f
4:40pm 17 20 mph 1017.6mb 33f
4:30pm 16 23 mph 1017.6mb 33f
4:20pm 21 24 mph 1017.3mb 33f
4:10pm 20 23 mph 1016.9mb 33f
4:00pm 18 21 mph 1016.6mb 33f
3:50pm 15 20 mph 1016.6mb 33f
3:40pm 16 21 mph 1016.6mb 33f
3:30pm 18 23 mph 1016.6mb 33f
3:20pm 20 22 mph 1016.3mb 33f
3:10pm 17 22 mph 1015.9mb 33f
3:00pm 17 22 mph 1015.6mb 33f
2:50pm 21 22 mph 1015.6mb 33f
2:40pm 18 22 mph 1015.2mb 33f
2:30pm 17 22 mph 1015.2mb 33f
2:20pm 20 22 mph 1014.9mb 33f
2:10pm 21 25 mph 1014.9mb 33f
2:00pm 17 22 mph 1014.6mb 33f
1:50pm 16 18 mph 1014.6mb 32f
1:40pm 17 22 mph 1014.2mb 31f
1:30pm 21 24 mph 1013.9mb 32f
1:20pm 20 23 mph 1013.9mb 32f
1:10pm 20 23 mph 1013.9mb 31f
1:00pm 17 21 mph 1013.5mb 31f
12:50pm 18 23 mph 1013.5mb 31f
12:40pm 16 24 mph 1013.2mb 31f
12:30pm 23 30 mph 1012.9mb 33f
12:20pm 25 29 mph 1012.5mb 33f
12:10pm 23 26 mph 1012.5mb 33f
12:00pm 23 28 mph 1012.2mb 33f
11:50am 25 29 mph 1012.2mb 33f
11:40am 25 28 mph 1011.9mb 33f
11:30am 22 28 mph 1011.9mb 33f
11:20am 24 28 mph 1011.9mb 32f
11:10am 25 30 mph 1011.9mb 32f
11:00am 21 31 mph 1011.9mb 32f
10:50am 25 30 mph 1011.5mb 32f
10:40am 25 28 mph 1011.5mb 32f
10:30am 24 30 mph 1011.2mb 32f
10:20am 24 28 mph 1011.2mb 32f
10:10am 26 30 mph 1011.2mb 32f
10:00am 26 31 mph 1011.2mb 32f
9:50am 28 31 mph 1010.8mb 32f
9:40am 25 32 mph 1010.8mb 32f
9:30am 25 30 mph 1010.5mb 31f
9:20am 25 31 mph 1010.5mb 32f
9:10am 25 32 mph 1010.2mb 32f
9:00am 28 31 mph 1009.8mb 31f
8:50am 26 32 mph 1009.8mb 32f
8:40am 26 30 mph 1009.5mb 31f
8:30am 28 32 mph 1009.5mb 31f
8:20am 25 31 mph 1009.5mb 31f
8:10am 28 31 mph 1009.1mb 31f
8:00am 30 34 mph 1009.1mb 31f
7:50am 28 32 mph 1008.5mb 32f
7:40am 28 32 mph 1008.5mb 31f
7:30am 28 33 mph 1008.5mb 32f
7:20am 26 33 mph 1008.1mb 32f
7:10am 29 36 mph 1008.1mb 32f
7:00am 29 32 mph 1007.8mb 32f
6:50am 29 34 mph 1007.5mb 31f
6:40am 30 36 mph 1007.5mb 31f
6:30am 28 34 mph 1007.5mb 32f
6:20am 26 32 mph 1007.5mb 32f
6:10am 29 32 mph 1007.5mb 31f
6:00am 28 31 mph 1007.1mb 32f
5:50am 24 32 mph 1007.1mb 32f
5:40am 30 33 mph 1006.8mb 31f
5:30am 26 34 mph 1006.4mb 32f
5:20am 30 33 mph 1006.1mb 32f
5:10am 25 30 mph 1006.1mb 31f
5:00am 26 33 mph 1006.1mb 31f
4:50am 28 36 mph 1006.1mb 32f
4:40am 31 39 mph 1005.4mb 32f
4:30am 36 41 mph 1005.4mb 32f
4:20am 33 39 mph 1005.1mb 32f
4:10am 31 39 mph 1005.1mb 32f
4:00am 33 38 mph 1004.7mb 32f
3:50am 34 38 mph 1004.7mb 32f
3:40am 33 38 mph 1004.7mb 32f
3:30am 36 43 mph 1004.4mb 32f
3:20am 37 40 mph 1004.4mb 32f
3:10am 34 43 mph 1003.7mb 32f
3:00am 36 43 mph 1003.7mb 32f
2:50am 38 44 mph 1003.4mb 32f
2:40am 36 43 mph 1003.7mb 32f
2:30am 34 45 mph 1003.4mb 32f
2:20am 38 43 mph 1003.4mb 33f
2:10am 39 45 mph 1003.4mb 33f
2:00am 37 44 mph 1003mb 33f
1:50am 37 43 mph 1003mb 33f
1:40am 34 46 mph 1003mb 33f
1:30am 38 46 mph 1002.7mb 33f
1:20am 36 45 mph 1002.7mb 33f
1:10am 40 46 mph 1002.7mb 33f
1:00am 37 45 mph 1002.4mb 33f
12:50am 33 44 mph 1002mb 33f
12:40am 38 47 mph 1001.7mb 33f
12:30am 39 46 mph 1002mb 33f
12:20am 38 49 mph 1001.4mb 33f
12:10am 41 48 mph 1001mb 33f
12:00am 39 47 mph 1001.4mb 33f
Mon 11/24 11:50pm 38 52 mph 1001.7mb 33f
11:40pm 38 48 mph 1001.4mb 34f
11:30pm 39 48 mph 1001mb 34f
11:20pm 38 48 mph 1001mb 34f
11:10pm 45 52 mph 1000.7mb 34f
11:00pm 46 52 mph 1000mb 34f
10:50pm 41 49 mph 1000mb 34f
10:40pm 39 47 mph 999.7mb 34f
10:30pm 41 47 mph 999.7mb 34f
10:20pm 38 51 mph 999.7mb 34f
10:10pm 41 49 mph 999mb 34f
10:00pm 41 52 mph 999mb 34f
9:50pm 38 52 mph 999mb 34f
9:40pm 40 48 mph 999mb 34f
9:30pm 43 51 mph 999mb 34f
9:20pm 38 49 mph 998.6mb 34f
9:10pm 44 51 mph 998.3mb 34f
9:00pm 39 49 mph 998.6mb 35f
8:50pm 43 51 mph 998mb 35f
8:40pm 43 51 mph 997.6mb 35f
8:30pm 40 51 mph 998mb 35f
8:20pm 44 53 mph 997.6mb 35f
8:10pm 45 53 mph 997.3mb 35f
8:00pm 45 53 mph 997.3mb 35f
7:50pm 44 53 mph 997mb 35f
7:40pm 41 55 mph 996.6mb 35f
7:30pm 41 49 mph 996.6mb 36f
7:20pm 43 54 mph 996.6mb 36f
7:10pm 33 54 mph 996.6mb 36f
7:00pm 46 53 mph 996.3mb 36f
6:50pm 43 55 mph 995.9mb 36f
6:40pm 45 55 mph 995.9mb 36f
6:30pm 41 51 mph 995.3mb 36f
6:20pm 43 52 mph 995.3mb 36f
6:10pm 45 55 mph 995.3mb 36f
6:00pm 39 56 mph 994.9mb 36f
5:50pm 44 59 mph 994.2mb 36f
5:40pm 47 55 mph 994.2mb 36f
5:30pm 46 56 mph 993.9mb 36f
5:20pm 44 56 mph 993.6mb 36f
5:10pm 44 51 mph 993.2mb 36f
5:00pm 38 47 mph 993.2mb 35f
4:50pm 41 49 mph 992.9mb 35f
4:40pm 43 51 mph 992.2mb 35f
4:30pm 39 51 mph 992.2mb 35f
4:20pm 43 55 mph 991.5mb 36f
4:10pm 46 59 mph 991.2mb 36f
4:00pm 51 57 mph 990.5mb 37f
3:50pm 43 57 mph 990.5mb 37f
3:40pm 48 55 mph 989.8mb 37f
3:30pm 39 55 mph 989.5mb 39f
3:20pm 48 57 mph 988.8mb 39f
3:10pm 40 55 mph 988.5mb 39f
3:00pm 47 60 mph 987.5mb 39f
2:50pm 49 56 mph 987.5mb 40f
2:40pm 49 57 mph 986.5mb 42f
2:30pm 45 54 mph 986.1mb 43f
2:20pm 43 54 mph 985.4mb 43f
2:10pm 31 37 mph 985.1mb 46f
2:00pm 24 26 mph 985.1mb 46f
1:50pm 22 24 mph 984.8mb 46f
1:40pm 23 29 mph 984.4mb 47f
1:30pm 22
mph
984.1mb 47f
1:20pm 20 21 mph 984.1mb 47f
1:10pm 17 18 mph 983.7mb 47f
1:00pm 15 16 mph 983.4mb 47f
12:50pm 15 16 mph 983.4mb 47f
12:40pm 15 16 mph 983.4mb 47f
12:30pm 14 15 mph 983.1mb 47f
12:20pm 14 16 mph 983.1mb 48f
12:10pm 15 17 mph 982.7mb 49f
12:00pm 16 18 mph 983.1mb 49f
11:50am 18
mph
983.1mb 49f
11:40am 18
mph
983.1mb 49f